Location: *
(45.1333°S, 169.6333°W)
Time: 19:36:20
(UTC+00:00)

STARLINK-4025 - Pass Details

Date: 26 May 2022
Orbit: 348 x 351 km, 53.2° (Epoch: 01 July)

Event Time Altitude Azimuth Distance (km) Brightness Sun altitude
Rises 04:35:34 0° 276° (W) 2,190 8.4 -8.1°
Reaches altitude 10° 04:37:45 10° 263° (W) 1,345 6.7 -8.5°
Maximum altitude 04:40:25 29° 200° (SSW) 707 4.2 -8.9°
Enters shadow 04:42:55 11° 139° (SE) 1,280 5.0 -9.3°
